This demonstration page uses our WeatherBlox Daily Observations layout. Learn more.

Left ArrowRight Arrow

31.31129, -92.44514

Hourly Observations for December 12, 2020

Temp ( °F °C ) Dew Point ( °F °C ) Humidity (%) Winds ( mph kmh ) Pressure ( in mb ) Visibility ( mi km ) Precip ( " mm )
12:02 am 00:02 Cloudy with Rain 60 15.6 59 15 96 96 NNE 8 13 29.89 1012 3 4 0.04 1.02
12:12 am 00:12 Cloudy with Rain 60 15.6 59 15 96 96 NE 8 13 29.88 1012 3 5 0.07 1.78
12:53 am 00:53 Cloudy with Light Rain 60 15.6 60 15.6 100 100 NE 3 6 29.88 1012 9 14 0.14 3.56
1:00 am 01:00 Cloudy with Light Rain 60 15.6 59 15 96 96 NNW 6 9 29.88 1012 7 11 0.01 0.25
1:40 am 01:40 Cloudy with Light Rain 60 15.6 59 15 96 96 NE 6 9 29.88 1012 5 8 0.03 0.76
1:53 am 01:53 Mostly Cloudy with Mist and Fog 59 15 59 15 100 100 NE 3 6 29.89 1012 10 16 0.03 0.76
2:09 am 02:09 Mostly Cloudy with Mist and Fog 60 15.6 59 15 96 96 N 3 6 29.89 1012 10 16 0.00 0.00
2:16 am 02:16 Mostly Cloudy with Mist and Fog 59 15 59 15 100 100 Calm 29.90 1013 10 16 0.00 0.00
2:53 am 02:53 Cloudy with Mist and Fog 59 15 59 15 100 100 W 3 6 29.91 1013 7 11 0.00 0.00
3:14 am 03:14 Cloudy with Mist and Fog 59 15 59 15 100 100 Calm 29.90 1013 2 3 0.00 0.00
3:27 am 03:27 Mostly Cloudy with Mist and Fog 59 15 58 14.4 96 96 Calm 29.91 1013 1 1 0.00 0.00
3:37 am 03:37 Mostly Cloudy with Mist and Fog 59 15 59 15 100 100 W 3 6 29.91 1013 0 0 0.00 0.00
3:53 am 03:53 Mostly Cloudy with Mist and Fog 59 15 59 15 100 100 W 3 6 29.92 1013 0 0 0.00 0.00
4:53 am 04:53 Mostly Cloudy with Light Rain 58 14.4 58 14.4 100 100 NW 3 6 29.93 1013 0 0 0.00 0.00
5:53 am 05:53 Mostly Cloudy with Light Rain 57 13.9 57 13.9 100 100 NW 7 11 29.95 1014 0 0 0.00 0.00
6:20 am 06:20 Mostly Cloudy with Light Rain 56 13.3 56 13.3 100 100 NW 6 9 29.96 1015 1 1 0.00 0.00
6:32 am 06:32 Mostly Cloudy with Light Rain 56 13.3 56 13.3 100 100 NNW 5 7 29.96 1015 0 0 0.00 0.00
6:53 am 06:53 Mostly Cloudy with Light Rain 56 13.3 56 13.3 100 100 NW 6 9 29.98 1015 0 0 0.00 0.00
7:37 am 07:37 Mostly Cloudy with Light Rain 57 13.9 57 13.9 100 100 NW 5 7 29.99 1016 1 1 0.00 0.00
7:53 am 07:53 Mostly Cloudy with Mist and Fog 57 13.9 57 13.9 100 100 NNW 6 9 30.00 1016 1 1 0.00 0.00
8:12 am 08:12 Cloudy with Light Rain 57 13.9 57 13.9 100 100 NNW 6 9 29.99 1016 2 3 0.00 0.00
8:20 am 08:20 Cloudy with Mist and Fog 58 14.4 58 14.4 100 100 NNW 7 11 30.00 1016 4 6 0.00 0.00
8:53 am 08:53 Cloudy with Light Rain 58 14.4 58 14.4 100 100 NNW 8 13 30.02 1017 6 10 0.00 0.00
9:00 am 09:00 Cloudy with Light Rain 58 14.4 58 14.4 100 100 NNW 6 9 30.01 1016 6 10 0.00 0.00
9:30 am 09:30 Cloudy with Mist and Fog 59 15 58 14.4 96 96 NNW 7 11 30.02 1017 6 10 0.00 0.00
9:53 am 09:53 Cloudy with Mist and Fog 59 15 58 14.4 96 96 NW 7 11 30.04 1017 7 11 0.00 0.00
10:53 am 10:53 Mostly Cloudy with Mist and Fog 60 15.6 57 13.9 90 90 WNW 8 13 30.05 1018 6 10 0.00 0.00
11:10 am 11:10 Partly Cloudy with Mist and Fog 61 16.1 54 12.2 78 78 NW 10 17 30.03 1017 10 16 0.00 0.00
11:53 am 11:53 Sunny with Mist and Fog 61 16.1 50 10 67 67 NW 9 15 30.03 1017 10 16 0.00 0.00
12:53 pm 12:53 Sunny with Mist and Fog 61 16.1 48 8.9 63 63 NNW 9 15 30.01 1016 10 16 0.00 0.00
1:53 pm 13:53 Sunny with Mist and Fog 62 16.7 47 8.3 58 58 WNW 10 17 30.01 1016 10 16 0.00 0.00
2:53 pm 14:53 Sunny with Mist and Fog 62 16.7 48 8.9 60 60 VRB 6 9 30.01 1016 10 16 0.00 0.00
3:53 pm 15:53 Sunny with Mist and Fog 62 16.7 48 8.9 60 60 WNW 5 7 30.01 1016 10 16 0.00 0.00
4:53 pm 16:53 Sunny with Mist and Fog 59 15 48 8.9 67 67 NW 5 7 30.01 1016 10 16 0.00 0.00
5:53 pm 17:53 Clear with Mist and Fog 56 13.3 47 8.3 72 72 Calm 30.02 1017 10 16 0.00 0.00
6:53 pm 18:53 Clear with Mist and Fog 49 9.4 46 7.8 90 90 NNW 3 6 30.04 1017 10 16 0.00 0.00
7:53 pm 19:53 Clear with Mist and Fog 49 9.4 47 8.3 93 93 NNW 3 6 30.05 1018 10 16 0.00 0.00
8:53 pm 20:53 Clear with Mist and Fog 49 9.4 46 7.8 90 90 N 5 7 30.06 1018 10 16 0.00 0.00
9:53 pm 21:53 Clear with Mist and Fog 47 8.3 45 7.2 93 93 Calm 30.07 1018 10 16 0.00 0.00
10:53 pm 22:53 Clear with Mist and Fog 46 7.8 45 7.2 96 96 Calm 30.07 1018 8 13 0.00 0.00
11:53 pm 23:53 Clear with Mist and Fog 48 8.9 43 6.1 83 83 ENE 7 11 30.03 1017 10 16 0.00 0.00

Powered by AerisWeather